Weather History for KACY - January, 2014

Change the Weather History Date:

Saturday, January 18, 2014

  Actual Average Record
Temperature  
Mean Temperature 33 °F 33 °F  
Max Temperature 43 °F 41 °F 67 °F (1986)
Min Temperature 23 °F 24 °F -9 °F (1977)
Degree Days  
Heating Degree Days 32 32  
Month to date heating degree days 597 574  
Since 1 July heating degree days 2397 2343  
Cooling Degree Days 0 0  
Month to date cooling degree days 0 0  
Year to date cooling degree days 0 0  
Moisture  
Dew Point 25 °F    
Average Humidity 74    
Maximum Humidity 100    
Minimum Humidity 47    
Precipitation  
Precipitation T in 0.11 in 1.40 in (2015)
Month to date precipitation 2.56 1.91  
Year to date precipitation 2.56 1.91  
Snow  
Snow 0.00 in 0.10 in 1.70 in (1984)
Month to date snowfall 6.5 2.2  
Since 1 July snowfall 9.8 6.1  
Snow Depth 0.00 in    
Sea Level Pressure  
Sea Level Pressure 29.80 in    
Wind  
Wind Speed 11 mph (WNW)    
Max Wind Speed 25 mph    
Max Gust Speed 32 mph    
Visibility 10 miles    
Events      
T = Trace of Precipitation, MM = Missing Value Source: NWS Daily Summary

Daily Weather History Graph

Daily Weather History Graph

Search for Another Location

Airport or City:

Trip Planner

Search our weather history database for the weather conditions in past years. The results will help you decide how hot, cold, wet, or windy it might be!

Date:

Astronomy

Jan. 18, 2014 Rise Set
Actual Time 7:15 AM EST 5:02 PM EST
Civil Twilight 6:46 AM EST 5:31 PM EST
Nautical Twilight 6:13 AM EST 6:04 PM EST
Astronomical Twilight 5:41 AM EST 6:36 PM EST
Moon 7:41 PM EST (1/18) 8:14 AM EST (1/18)
Length of Visible Light 10h 45m
Length of Day
9h 46m
Waning Gibbous, 94% of the Moon is Illuminated
Jan 18
Waning Gibbous
Jan 24
Last Quarter
Jan 30
New
Feb 6
First Quarter
Feb 14
Full

Hourly Weather History & Observations

Time (EST) Temp. Windchill Dew Point Humidity Pressure Visibility Wind Dir Wind Speed Gust Speed Precip Events Conditions
12:54 AM 39.9 °F 37.8 °F 36.0 °F 86% 29.82 in 10.0 mi ENE 3.5 mph - 0.00 in   Overcast
1:54 AM 37.0 °F 34.5 °F 35.1 °F 93% 29.81 in 10.0 mi NE 3.5 mph - N/A   Overcast
2:54 AM 37.9 °F - 36.0 °F 93% 29.79 in 10.0 mi Calm Calm - N/A   Scattered Clouds
3:54 AM 36.0 °F 33.3 °F 34.0 °F 93% 29.75 in 9.0 mi North 3.5 mph - N/A   Clear
4:54 AM 37.0 °F - 35.1 °F 93% 29.74 in 10.0 mi Calm Calm - N/A   Mostly Cloudy
5:54 AM 36.0 °F - 36.0 °F 100% 29.72 in 10.0 mi Calm Calm - N/A   Overcast
6:54 AM 36.0 °F - 35.1 °F 97% 29.71 in 10.0 mi Calm Calm - N/A   Overcast
7:54 AM 35.1 °F 26.4 °F 33.1 °F 92% 29.73 in 10.0 mi WNW 12.7 mph - N/A   Partly Cloudy
8:18 AM 36.0 °F 28.0 °F 33.1 °F 89% 29.74 in 8.0 mi WNW 11.5 mph - N/A   Overcast
8:50 AM 35.6 °F 26.2 °F 32.0 °F 87% 29.74 in 8.0 mi WNW 15.0 mph - N/A   Mostly Cloudy
8:54 AM 35.1 °F 25.9 °F 32.0 °F 89% 29.75 in 8.0 mi WNW 13.8 mph - N/A   Mostly Cloudy
9:11 AM 36.0 °F 26.7 °F 32.0 °F 86% 29.75 in 7.0 mi WNW 15.0 mph - N/A   Overcast
9:54 AM 37.0 °F 26.4 °F 30.0 °F 76% 29.76 in 10.0 mi WNW 20.7 mph - N/A   Overcast
10:54 AM 36.0 °F 25.3 °F 27.0 °F 70% 29.77 in 10.0 mi WNW 19.6 mph - N/A   Overcast
11:54 AM 39.0 °F 29.3 °F 25.0 °F 57% 29.75 in 10.0 mi WNW 19.6 mph 27.6 mph N/A   Scattered Clouds
12:54 PM 39.0 °F 29.3 °F 23.0 °F 53% 29.74 in 10.0 mi West 19.6 mph 29.9 mph N/A   Clear
1:54 PM 37.9 °F 28.5 °F 21.0 °F 51% 29.76 in 10.0 mi West 17.3 mph - N/A   Clear
2:54 PM 36.0 °F 26.3 °F 19.0 °F 50% 29.79 in 10.0 mi West 16.1 mph 25.3 mph N/A   Clear
3:54 PM 32.0 °F 19.5 °F 15.1 °F 50% 29.83 in 10.0 mi West 21.9 mph 28.8 mph N/A   Clear
4:54 PM 30.0 °F 19.1 °F 12.0 °F 47% 29.83 in 10.0 mi West 15.0 mph 28.8 mph N/A   Clear
5:54 PM 28.0 °F 17.5 °F 12.0 °F 51% 29.86 in 10.0 mi WNW 12.7 mph - N/A   Clear
6:54 PM 27.0 °F 15.6 °F 10.9 °F 51% 29.90 in 10.0 mi West 13.8 mph 23.0 mph N/A   Clear
7:54 PM 26.1 °F 15.6 °F 10.9 °F 53% 29.92 in 10.0 mi West 11.5 mph - N/A   Clear
8:54 PM 25.0 °F 13.1 °F 10.9 °F 55% 29.93 in 10.0 mi West 13.8 mph - N/A   Clear
9:54 PM 24.1 °F 13.7 °F 10.0 °F 55% 29.93 in 10.0 mi West 10.4 mph - N/A   Clear
10:54 PM 24.1 °F 15.2 °F 9.0 °F 53% 29.94 in 10.0 mi West 8.1 mph - N/A   Clear
11:54 PM 23.0 °F 14.7 °F 10.0 °F 58% 29.92 in 10.0 mi West 6.9 mph - N/A   Clear